Home > Weather > Long Beach > Past weeks

Flag for U.S.A. Weather for the Past 2 Weeks in Long Beach, California, U.S.A.

Now
57 °F

Clear.


Feels Like: 57 °F
Forecast: 57 / 85 °F
Wind: 5 mph from Northwest

Location: Long Beach Airport

Current Time: Feb 9, 2016 at 5:04:30 AM

Latest Report: Feb 9, 2016 at 3:53 AM


Visibility: 10 mi

Pressure: 30.10 "Hg

Humidity: 41%

Dew point: 33 °F

Location of Long BeachLocation

Historic Weather in Long Beach — Graph

°F

Long Beach Temperature Yesterday

Maximum temperature yesterday: 87 °F (at 12:53 PM)
Minimum temperature yesterday: 52 °F (at 6:53 AM)
Average temperature yesterday: 71 °F

High & Low Weather Summary for the Past Weeks

 TemperatureHumidityPressure
High87 °F (Feb 8, 12:53 PM)100% (Jan 29, 10:53 PM)30.36 "Hg (Jan 29, 10:53 PM)
Low40 °F (Feb 2, 5:53 AM)12% (Feb 6, 2:53 PM)29.63 "Hg (Jan 31, 1:53 PM)
Average59 °F50%30.13 "Hg
* Reported Jan 25 2:53 AM — Feb 9 2:53 AM, Long Beach, Weather by CustomWeather, © 2016

Note: Actual official high and low records may vary slightly from our data, if they occured in-between our weather recording intervals... More about our weather records

Advertising

Long Beach Weather History for the Previous 24 Hours

 ConditionsComfort  
Time TempWeatherWind HumidityBarometerVisibility
2:53 AM
Tue, Feb 9
60 °FClear.6 mph35%30.11 "Hg10 mi
1:53 AM60 °FClear.5 mph38%30.11 "Hg10 mi
12:53 AM62 °FClear.5 mph37%30.11 "Hg10 mi
11:53 PM
Mon, Feb 8
63 °FClear.5 mph37%30.12 "Hg10 mi
10:53 PM65 °FClear.3 mph33%30.12 "Hg10 mi
9:53 PM71 °FClear.6 mph22%30.12 "Hg10 mi
8:53 PM74 °FClear.6 mph17%30.11 "Hg10 mi
7:53 PM75 °FClear.6 mph16%30.09 "Hg10 mi
6:53 PM78 °FClear.No wind14%30.08 "Hg10 mi
5:53 PM80 °FClear.5 mph15%30.07 "Hg10 mi
4:53 PM84 °FSunny.8 mph13%30.06 "Hg10 mi
3:53 PM86 °FSunny.10 mph13%30.06 "Hg10 mi
2:53 PM87 °FSunny.10 mph13%30.06 "Hg10 mi
1:53 PM87 °FSunny.9 mph13%30.07 "Hg10 mi
12:53 PM87 °FSunny.15 mph12%30.09 "Hg10 mi
11:53 AM86 °FSunny.15 mph12%30.11 "Hg10 mi
10:53 AM84 °FSunny.14 mph12%30.14 "Hg10 mi
9:53 AM80 °FSunny.6 mph18%30.14 "Hg10 mi
8:53 AM68 °FSunny.3 mph33%30.14 "Hg10 mi
7:53 AM58 °FSunny.3 mph46%30.13 "Hg10 mi
6:53 AM52 °FSunny.6 mph53%30.11 "Hg10 mi
5:53 AM53 °FClear.5 mph51%30.10 "Hg10 mi
Weather by CustomWeather, © 2016

See weather overviewHow to use our weather pages